Joplin, MO

11:02 PM CST on December 13, 2019 (GMT -0600)
Joplin Regional

Weather History for KJLN - October, 2019

Change the Weather History Date:

Tuesday, October 22, 2019

  Actual Average Record
Temperature  
Mean Temperature 52 °F 58 °F  
Max Temperature 63 °F 70 °F 84 °F (1963)
Min Temperature 41 °F 47 °F 27 °F (1982)
Degree Days  
Heating Degree Days 13 8  
Month to date heating degree days 160 127  
Since 1 July heating degree days 160 169  
Cooling Degree Days 0 1  
Month to date cooling degree days 38 40  
Year to date cooling degree days 1696 1682  
Growing Degree Days 2 (Base 50)    
Moisture  
Dew Point 34 °F    
Average Humidity 54    
Maximum Humidity 71    
Minimum Humidity 34    
Precipitation  
Precipitation 0.00 in 0.14 in 2.31 in (1972)
Month to date precipitation 2.34 2.89  
Year to date precipitation 55.68 38.81  
Sea Level Pressure  
Sea Level Pressure 30.05 in    
Wind  
Wind Speed 10 mph ()    
Max Wind Speed 23 mph    
Max Gust Speed 33 mph    
Visibility 10.0 miles    
Events      
T = Trace of Precipitation, MM = Missing Value Source: Averaged Metar Reports

Daily Weather History Graph

Daily Weather History Graph

Search for Another Location

Airport or City:

Astronomy

Oct. 22, 2019 Rise Set
Actual Time 7:32 AM CDT 6:32 PM CDT
Civil Twilight 7:05 AM CDT 6:58 PM CDT
Nautical Twilight 6:35 AM CDT 7:28 PM CDT
Astronomical Twilight 6:05 AM CDT 7:59 PM CDT
Moon 12:54 AM CDT (10/22) 3:31 PM CDT (10/22)
Length of Visible Light 11h 52m
Length of Day
10h 59m
Last Quarter, 37% of the Moon is Illuminated
Oct 22
Last Quarter
Oct 27
New
Nov 4
First Quarter
Nov 12
Full
Nov 19
Last Quarter

Hourly Weather History & Observations

Time (CDT) Temp. Windchill Dew Point Humidity Pressure Visibility Wind Dir Wind Speed Gust Speed Precip Events Conditions
12:53 AM 48.9 °F - 36.0 °F 61% 29.96 in 10.0 mi West 9.2 mph - N/A   Clear
1:53 AM 48.0 °F - 35.1 °F 61% 29.97 in 10.0 mi West 10.4 mph - N/A   Clear
2:53 AM 46.9 °F - 34.0 °F 61% 29.99 in 10.0 mi WSW 11.5 mph - N/A   Clear
3:53 AM 46.0 °F 41.0 °F 34.0 °F 63% 30.00 in 10.0 mi WSW 10.4 mph - N/A   Clear
4:53 AM 45.0 °F 39.3 °F 33.1 °F 63% 30.00 in 10.0 mi WSW 11.5 mph - N/A   Clear
5:53 AM 44.1 °F 37.7 °F 32.0 °F 63% 30.03 in 10.0 mi West 12.7 mph - N/A   Clear
6:53 AM 42.1 °F 37.1 °F 30.9 °F 65% 30.05 in 10.0 mi West 8.1 mph - N/A   Clear
7:53 AM 41.0 °F 36.4 °F 30.9 °F 67% 30.07 in 10.0 mi West 6.9 mph - N/A   Clear
8:53 AM 46.0 °F 40.6 °F 32.0 °F 58% 30.10 in 10.0 mi West 11.5 mph - N/A   Clear
9:53 AM 51.1 °F - 33.1 °F 50% 30.11 in 10.0 mi West 11.5 mph - N/A   Clear
10:53 AM 55.0 °F - 35.1 °F 47% 30.11 in 10.0 mi West 12.7 mph - N/A   Clear
11:53 AM 57.9 °F - 34.0 °F 41% 30.11 in 10.0 mi West 16.1 mph 23.0 mph N/A   Clear
12:53 PM 60.1 °F - 33.1 °F 36% 30.10 in 10.0 mi West 18.4 mph 24.2 mph N/A   Clear
1:53 PM 61.0 °F - 33.1 °F 35% 30.07 in 10.0 mi West 20.7 mph 31.1 mph N/A   Clear
2:53 PM 62.1 °F - 33.1 °F 34% 30.06 in 10.0 mi West 16.1 mph 28.8 mph N/A   Partly Cloudy
3:53 PM 61.0 °F - 33.1 °F 35% 30.06 in 10.0 mi West 16.1 mph 27.6 mph N/A   Clear
4:53 PM 62.1 °F - 34.0 °F 35% 30.05 in 10.0 mi WNW 11.5 mph - N/A   Partly Cloudy
5:53 PM 60.1 °F - 34.0 °F 38% 30.06 in 10.0 mi WNW 9.2 mph - N/A   Clear
6:53 PM 55.0 °F - 34.0 °F 45% 30.06 in 10.0 mi West 5.8 mph - N/A   Clear
7:53 PM 50.0 °F - 36.0 °F 59% 30.07 in 10.0 mi Variable 3.5 mph - N/A   Clear
8:53 PM 48.0 °F - 36.0 °F 63% 30.06 in 10.0 mi South 5.8 mph - N/A   Clear
9:53 PM 46.0 °F 42.5 °F 36.0 °F 68% 30.06 in 10.0 mi South 6.9 mph - N/A   Clear
10:53 PM 45.0 °F 40.6 °F 36.0 °F 71% 30.05 in 10.0 mi South 8.1 mph - N/A   Clear
11:53 PM 45.0 °F 40.6 °F 36.0 °F 71% 30.03 in 10.0 mi South 8.1 mph - N/A   Clear